TimeHST,TemperatureF,Dew PointF,Humidity,Sea Level PressureIn,VisibilityMPH,Wind Direction,Wind SpeedMPH,Gust SpeedMPH,PrecipitationIn,Events,Conditions,WindDirDegrees,DateUTC
12:53 AM,75.9,66.0,71,30.04,10.0,ENE,5.8,-,N/A,,Partly Cloudy,70,2013-08-16 10:53:00
1:53 AM,73.0,68.0,84,30.03,10.0,ENE,4.6,-,0.00,,Overcast,60,2013-08-16 11:53:00
2:53 AM,73.0,66.0,79,30.02,10.0,East,3.5,-,N/A,,Mostly Cloudy,80,2013-08-16 12:53:00
3:53 AM,75.0,66.9,76,30.02,10.0,East,8.1,-,N/A,,Mostly Cloudy,90,2013-08-16 13:53:00
4:53 AM,73.0,66.9,81,30.02,10.0,ENE,3.5,-,0.00,,Scattered Clouds,70,2013-08-16 14:53:00
5:53 AM,72.0,66.9,84,30.03,10.0,ENE,3.5,-,N/A,,Partly Cloudy,70,2013-08-16 15:53:00
6:53 AM,75.0,66.0,73,30.05,10.0,Variable,4.6,-,N/A,,Mostly Cloudy,0,2013-08-16 16:53:00
7:53 AM,77.0,66.0,69,30.07,10.0,East,5.8,-,N/A,,Overcast,80,2013-08-16 17:53:00
8:53 AM,81.0,66.9,62,30.07,10.0,Variable,5.8,-,N/A,,Mostly Cloudy,0,2013-08-16 18:53:00
9:53 AM,84.0,64.9,53,30.07,10.0,Variable,6.9,16.1,N/A,,Partly Cloudy,0,2013-08-16 19:53:00
10:53 AM,84.9,64.0,49,30.06,10.0,NE,10.4,19.6,N/A,,Partly Cloudy,40,2013-08-16 20:53:00
11:53 AM,88.0,64.9,46,30.04,10.0,NE,8.1,18.4,N/A,,Partly Cloudy,50,2013-08-16 21:53:00
12:53 PM,88.0,64.0,45,30.03,10.0,East,8.1,20.7,N/A,,Clear,90,2013-08-16 22:53:00
1:53 PM,89.1,66.0,46,30.01,10.0,East,11.5,19.6,N/A,,Clear,80,2013-08-16 23:53:00
2:53 PM,87.1,66.0,49,30.01,10.0,East,9.2,21.9,N/A,,Partly Cloudy,80,2013-08-17 00:53:00
3:53 PM,84.9,66.9,55,30.00,10.0,NE,8.1,18.4,N/A,,Clear,40,2013-08-17 01:53:00
4:53 PM,84.0,64.9,53,30.01,10.0,NE,10.4,19.6,N/A,,Clear,50,2013-08-17 02:53:00
5:53 PM,81.0,66.0,60,30.02,10.0,Variable,5.8,18.4,N/A,,Clear,0,2013-08-17 03:53:00
6:53 PM,79.0,66.0,64,30.04,10.0,ENE,10.4,17.3,N/A,,Clear,60,2013-08-17 04:53:00
7:53 PM,77.0,66.0,69,30.06,10.0,ENE,6.9,-,N/A,,Clear,70,2013-08-17 05:53:00
8:53 PM,75.9,64.9,69,30.07,10.0,ENE,5.8,-,N/A,,Clear,70,2013-08-17 06:53:00
9:53 PM,75.9,64.9,69,30.08,10.0,ENE,6.9,-,N/A,,Clear,70,2013-08-17 07:53:00
10:53 PM,75.0,64.9,71,30.09,10.0,Calm,Calm,-,N/A,,Partly Cloudy,0,2013-08-17 08:53:00
11:29 PM,75.2,66.2,73,30.06,10.0,ENE,6.9,-,N/A,,Partly Cloudy,60,2013-08-17 09:29:00
11:53 PM,75.9,64.0,67,30.08,10.0,ENE,6.9,-,N/A,,Clear,70,2013-08-17 09:53:00